Year,Month,Day,Hour,Minute,Value (Times are PST for temperature in C)
2007,08,01,00,00,15.60
2007,08,01,00,01,15.50
2007,08,01,00,02,15.50
2007,08,01,00,03,15.50
2007,08,01,00,04,15.40
2007,08,01,00,05,15.40
2007,08,01,00,06,15.30
2007,08,01,00,07,15.30
2007,08,01,00,08,15.30
2007,08,01,00,09,15.30
2007,08,01,00,10,15.30
2007,08,01,00,11,15.30
2007,08,01,00,12,15.30
2007,08,01,00,13,15.20
2007,08,01,00,14,15.20
2007,08,01,00,15,15.20
2007,08,01,00,16,15.20
2007,08,01,00,17,15.20
2007,08,01,00,18,15.20
2007,08,01,00,19,15.10
2007,08,01,00,20,15.10
2007,08,01,00,21,15.10
2007,08,01,00,22,15.10
2007,08,01,00,23,15.00
2007,08,01,00,24,15.00
2007,08,01,00,25,15.00
2007,08,01,00,26,15.10
2007,08,01,00,27,15.10
2007,08,01,00,28,15.10
2007,08,01,00,29,15.10
2007,08,01,00,30,15.10
2007,08,01,00,31,15.10
2007,08,01,00,32,15.10
2007,08,01,00,33,15.10
2007,08,01,00,34,15.00
2007,08,01,00,35,15.00
2007,08,01,00,36,15.00
2007,08,01,00,37,15.00
2007,08,01,00,38,15.00
2007,08,01,00,39,15.00
2007,08,01,00,40,15.00
2007,08,01,00,41,15.00
2007,08,01,00,42,15.00
2007,08,01,00,43,15.00
2007,08,01,00,44,14.90
2007,08,01,00,45,14.90
2007,08,01,00,46,14.90
2007,08,01,00,47,14.90
2007,08,01,00,48,14.90
2007,08,01,00,49,15.00
2007,08,01,00,50,15.00
2007,08,01,00,51,15.00
2007,08,01,00,52,15.00
2007,08,01,00,53,15.00
2007,08,01,00,54,15.00
2007,08,01,00,55,15.00
2007,08,01,00,56,15.00
2007,08,01,00,57,14.90
2007,08,01,00,58,14.90
2007,08,01,00,59,14.90
2007,08,01,01,00,14.90
2007,08,01,01,01,14.90
2007,08,01,01,02,14.80
2007,08,01,01,03,14.80
2007,08,01,01,04,14.80
2007,08,01,01,05,14.80
2007,08,01,01,06,14.80
2007,08,01,01,07,14.80
2007,08,01,01,08,14.80
2007,08,01,01,09,14.80
2007,08,01,01,10,14.80
2007,08,01,01,11,14.80
2007,08,01,01,12,14.80
2007,08,01,01,13,14.80
2007,08,01,01,14,14.70
2007,08,01,01,15,14.60
2007,08,01,01,16,14.60
2007,08,01,01,17,14.50
2007,08,01,01,18,14.40
2007,08,01,01,19,14.30
2007,08,01,01,20,14.30
2007,08,01,01,21,14.20
2007,08,01,01,22,14.20
2007,08,01,01,23,14.20
2007,08,01,01,24,14.10
2007,08,01,01,25,14.10
2007,08,01,01,26,14.10
2007,08,01,01,27,14.10
2007,08,01,01,28,14.10
2007,08,01,01,29,14.10
2007,08,01,01,30,14.10
2007,08,01,01,31,14.10
2007,08,01,01,32,14.10
2007,08,01,01,33,14.00
2007,08,01,01,34,14.10
2007,08,01,01,35,14.10
2007,08,01,01,36,14.10
2007,08,01,01,37,14.20
2007,08,01,01,38,14.20
2007,08,01,01,39,14.30
2007,08,01,01,40,14.40
2007,08,01,01,41,14.50
2007,08,01,01,42,14.50
2007,08,01,01,43,14.50
2007,08,01,01,44,14.50
2007,08,01,01,45,14.40
2007,08,01,01,46,14.40
2007,08,01,01,47,14.40
2007,08,01,01,48,14.40
2007,08,01,01,49,14.40
2007,08,01,01,50,14.30
2007,08,01,01,51,14.30
2007,08,01,01,52,14.20
2007,08,01,01,53,14.20
2007,08,01,01,54,14.20
2007,08,01,01,55,14.20
2007,08,01,01,56,14.10
2007,08,01,01,57,14.10
2007,08,01,01,58,14.00
2007,08,01,01,59,14.00
2007,08,01,02,00,14.00
2007,08,01,02,01,14.00
2007,08,01,02,02,13.90
2007,08,01,02,03,13.90
2007,08,01,02,04,13.90
2007,08,01,02,05,13.90
2007,08,01,02,06,13.80
2007,08,01,02,07,13.80
2007,08,01,02,08,13.80
2007,08,01,02,09,13.80
2007,08,01,02,10,13.80
2007,08,01,02,11,13.80
2007,08,01,02,12,13.80
2007,08,01,02,13,13.80
2007,08,01,02,14,13.90
2007,08,01,02,15,13.90
2007,08,01,02,16,13.90
2007,08,01,02,17,14.00
2007,08,01,02,18,14.00
2007,08,01,02,19,14.00
2007,08,01,02,20,14.00
2007,08,01,02,21,14.00
2007,08,01,02,22,14.00
2007,08,01,02,23,14.00
2007,08,01,02,24,14.10
2007,08,01,02,25,14.10
2007,08,01,02,26,14.10
2007,08,01,02,27,14.10
2007,08,01,02,28,14.10
2007,08,01,02,29,14.10
2007,08,01,02,30,14.00
2007,08,01,02,31,14.00
2007,08,01,02,32,14.00
2007,08,01,02,33,14.00
2007,08,01,02,34,13.90
2007,08,01,02,35,13.90
2007,08,01,02,36,13.90
2007,08,01,02,37,13.80
2007,08,01,02,38,13.80
2007,08,01,02,39,13.80
2007,08,01,02,40,13.70
2007,08,01,02,41,13.70
2007,08,01,02,42,13.70
2007,08,01,02,43,13.70
2007,08,01,02,44,13.60
2007,08,01,02,45,13.60
2007,08,01,02,46,13.60
2007,08,01,02,47,13.60
2007,08,01,02,48,13.50
2007,08,01,02,49,13.50
2007,08,01,02,50,13.50
2007,08,01,02,51,13.50
2007,08,01,02,52,13.40
2007,08,01,02,53,13.40
2007,08,01,02,54,13.40
2007,08,01,02,55,13.30
2007,08,01,02,56,13.30
2007,08,01,02,57,13.30
2007,08,01,02,58,13.30
2007,08,01,02,59,13.30
2007,08,01,03,00,13.30
2007,08,01,03,01,13.30
2007,08,01,03,02,13.30
2007,08,01,03,03,13.30
2007,08,01,03,04,13.30
2007,08,01,03,05,13.30
2007,08,01,03,06,13.30
2007,08,01,03,07,13.40
2007,08,01,03,08,13.40
2007,08,01,03,09,13.50
2007,08,01,03,10,13.50
2007,08,01,03,11,13.50
2007,08,01,03,12,13.50
2007,08,01,03,13,13.50
2007,08,01,03,14,13.50
2007,08,01,03,15,13.50
2007,08,01,03,16,13.50
2007,08,01,03,17,13.50
2007,08,01,03,18,13.50
2007,08,01,03,19,13.50
2007,08,01,03,20,13.50
2007,08,01,03,21,13.50
2007,08,01,03,22,13.50
2007,08,01,03,23,13.50
2007,08,01,03,24,13.50
2007,08,01,03,25,13.50
2007,08,01,03,26,13.50
2007,08,01,03,27,13.50
2007,08,01,03,28,13.50
2007,08,01,03,29,13.50
2007,08,01,03,30,13.50
2007,08,01,03,31,13.50
2007,08,01,03,32,13.50
2007,08,01,03,33,13.50
2007,08,01,03,34,13.40
2007,08,01,03,35,13.50
2007,08,01,03,36,13.50
2007,08,01,03,37,13.50
2007,08,01,03,38,13.50
2007,08,01,03,39,13.50
2007,08,01,03,40,13.50
2007,08,01,03,41,13.50
2007,08,01,03,42,13.50
2007,08,01,03,43,13.50
2007,08,01,03,44,13.50
2007,08,01,03,45,13.50
2007,08,01,03,46,13.50
2007,08,01,03,47,13.50
2007,08,01,03,48,13.50
2007,08,01,03,49,13.50
2007,08,01,03,50,13.50
2007,08,01,03,51,13.50
2007,08,01,03,52,13.50
2007,08,01,03,53,13.50
2007,08,01,03,54,13.50
2007,08,01,03,55,13.60
2007,08,01,03,56,13.70
2007,08,01,03,57,13.70
2007,08,01,03,58,13.70
2007,08,01,03,59,13.70
2007,08,01,04,00,13.70
2007,08,01,04,01,13.70
2007,08,01,04,02,13.70
2007,08,01,04,03,13.60
2007,08,01,04,04,13.60
2007,08,01,04,05,13.60
2007,08,01,04,06,13.60
2007,08,01,04,07,13.70
2007,08,01,04,08,13.70
2007,08,01,04,09,13.70
2007,08,01,04,10,13.70
2007,08,01,04,11,13.60
2007,08,01,04,12,13.60
2007,08,01,04,13,13.60
2007,08,01,04,14,13.60
2007,08,01,04,15,13.70
2007,08,01,04,16,13.80
2007,08,01,04,17,13.80
2007,08,01,04,18,13.90
2007,08,01,04,19,13.90
2007,08,01,04,20,13.80
2007,08,01,04,21,13.80
2007,08,01,04,22,13.90
2007,08,01,04,23,13.90
2007,08,01,04,24,14.00
2007,08,01,04,25,14.00
2007,08,01,04,26,14.00
2007,08,01,04,27,14.00
2007,08,01,04,28,14.10
2007,08,01,04,29,14.10
2007,08,01,04,30,14.10
2007,08,01,04,31,14.10
2007,08,01,04,32,14.00
2007,08,01,04,33,14.00
2007,08,01,04,34,14.10
2007,08,01,04,35,14.10
2007,08,01,04,36,14.00
2007,08,01,04,37,14.00
2007,08,01,04,38,14.00
2007,08,01,04,39,14.10
2007,08,01,04,40,14.10
2007,08,01,04,41,14.10
2007,08,01,04,42,14.10
2007,08,01,04,43,14.20
2007,08,01,04,44,14.40
2007,08,01,04,45,14.50
2007,08,01,04,46,14.60
2007,08,01,04,47,14.60
2007,08,01,04,48,14.60
2007,08,01,04,49,14.60
2007,08,01,04,50,14.60
2007,08,01,04,51,14.60
2007,08,01,04,52,14.60
2007,08,01,04,53,14.70
2007,08,01,04,54,14.70
2007,08,01,04,55,14.80
2007,08,01,04,56,14.90
2007,08,01,04,57,14.90
2007,08,01,04,58,14.90
2007,08,01,04,59,14.90
2007,08,01,05,00,14.90
2007,08,01,05,01,14.80
2007,08,01,05,02,14.70
2007,08,01,05,03,14.50
2007,08,01,05,04,14.30
2007,08,01,05,05,14.20
2007,08,01,05,06,14.00
2007,08,01,05,07,13.90
2007,08,01,05,08,13.80
2007,08,01,05,09,13.70
2007,08,01,05,10,13.60
2007,08,01,05,11,13.50
2007,08,01,05,12,13.40
2007,08,01,05,13,13.40
2007,08,01,05,14,13.30
2007,08,01,05,15,13.20
2007,08,01,05,16,13.20
2007,08,01,05,17,13.20
2007,08,01,05,18,13.20
2007,08,01,05,19,13.30
2007,08,01,05,20,13.30
2007,08,01,05,21,13.20
2007,08,01,05,22,13.20
2007,08,01,05,23,13.10
2007,08,01,05,24,13.10
2007,08,01,05,25,13.00
2007,08,01,05,26,13.00
2007,08,01,05,27,13.00
2007,08,01,05,28,13.00
2007,08,01,05,29,12.90
2007,08,01,05,30,12.90
2007,08,01,05,31,12.80
2007,08,01,05,32,12.80
2007,08,01,05,33,12.80
2007,08,01,05,34,12.80
2007,08,01,05,35,12.80
2007,08,01,05,36,12.90
2007,08,01,05,37,12.90
2007,08,01,05,38,13.00
2007,08,01,05,39,13.10
2007,08,01,05,40,13.20
2007,08,01,05,41,13.30
2007,08,01,05,42,13.30
2007,08,01,05,43,13.30
2007,08,01,05,44,13.30
2007,08,01,05,45,13.30
2007,08,01,05,46,13.30
2007,08,01,05,47,13.30
2007,08,01,05,48,13.30
2007,08,01,05,49,13.30
2007,08,01,05,50,13.30
2007,08,01,05,51,13.30
2007,08,01,05,52,13.30
2007,08,01,05,53,13.30
2007,08,01,05,54,13.30
2007,08,01,05,55,13.30
2007,08,01,05,56,13.30
2007,08,01,05,57,13.20
2007,08,01,05,58,13.20
2007,08,01,05,59,13.20
2007,08,01,06,00,13.10
2007,08,01,06,01,13.10
2007,08,01,06,02,13.10
2007,08,01,06,03,13.20
2007,08,01,06,04,13.20
2007,08,01,06,05,13.20
2007,08,01,06,06,13.20
2007,08,01,06,07,13.20
2007,08,01,06,08,13.20
2007,08,01,06,09,13.30
2007,08,01,06,10,13.30
2007,08,01,06,11,13.30
2007,08,01,06,12,13.40
2007,08,01,06,13,13.40
2007,08,01,06,14,13.50
2007,08,01,06,15,13.50
2007,08,01,06,16,13.60
2007,08,01,06,17,13.70
2007,08,01,06,18,13.70
2007,08,01,06,19,13.80
2007,08,01,06,20,14.00
2007,08,01,06,21,14.00
2007,08,01,06,22,14.10
2007,08,01,06,23,14.20
2007,08,01,06,24,14.20
2007,08,01,06,25,14.20
2007,08,01,06,26,14.30
2007,08,01,06,27,14.30
2007,08,01,06,28,14.40
2007,08,01,06,29,14.40
2007,08,01,06,30,14.50
2007,08,01,06,31,14.50
2007,08,01,06,32,14.50
2007,08,01,06,33,14.60
2007,08,01,06,34,14.60
2007,08,01,06,35,14.70
2007,08,01,06,36,14.80
2007,08,01,06,37,14.80
2007,08,01,06,38,14.80
2007,08,01,06,39,14.80
2007,08,01,06,40,14.90
2007,08,01,06,41,14.90
2007,08,01,06,42,14.80
2007,08,01,06,43,14.80
2007,08,01,06,44,14.80
2007,08,01,06,45,14.80
2007,08,01,06,46,14.80
2007,08,01,06,47,14.80
2007,08,01,06,48,14.80
2007,08,01,06,49,14.80
2007,08,01,06,50,14.90
2007,08,01,06,51,14.90
2007,08,01,06,52,15.00
2007,08,01,06,53,15.00
2007,08,01,06,54,15.10
2007,08,01,06,55,15.20
2007,08,01,06,56,15.30
2007,08,01,06,57,15.40
2007,08,01,06,58,15.50
2007,08,01,06,59,15.60
2007,08,01,07,00,15.70
2007,08,01,07,01,15.90
2007,08,01,07,02,15.90
2007,08,01,07,03,16.10
2007,08,01,07,04,16.10
2007,08,01,07,05,16.10
2007,08,01,07,06,16.10
2007,08,01,07,07,16.00
2007,08,01,07,08,15.90
2007,08,01,07,09,15.90
2007,08,01,07,10,15.80
2007,08,01,07,11,15.70
2007,08,01,07,12,15.70
2007,08,01,07,13,15.60
2007,08,01,07,14,15.60
2007,08,01,07,15,15.50
2007,08,01,07,16,15.50
2007,08,01,07,17,15.50
2007,08,01,07,18,15.50
2007,08,01,07,19,15.50
2007,08,01,07,20,15.50
2007,08,01,07,21,15.50
2007,08,01,07,22,15.50
2007,08,01,07,23,15.50
2007,08,01,07,24,15.50
2007,08,01,07,25,15.50
2007,08,01,07,26,15.60
2007,08,01,07,27,15.60
2007,08,01,07,28,15.70
2007,08,01,07,29,15.80
2007,08,01,07,30,15.80
2007,08,01,07,31,15.90
2007,08,01,07,32,16.10
2007,08,01,07,33,16.20
2007,08,01,07,34,16.30
2007,08,01,07,35,16.40
2007,08,01,07,36,16.60
2007,08,01,07,37,16.70
2007,08,01,07,38,16.80
2007,08,01,07,39,16.90
2007,08,01,07,40,17.00
2007,08,01,07,41,17.10
2007,08,01,07,42,17.20
2007,08,01,07,43,17.30
2007,08,01,07,44,17.40
2007,08,01,07,45,17.50
2007,08,01,07,46,17.60
2007,08,01,07,47,17.70
2007,08,01,07,48,17.80
2007,08,01,07,49,17.80
2007,08,01,07,50,17.90
2007,08,01,07,51,17.90
2007,08,01,07,52,18.10
2007,08,01,07,53,18.10
2007,08,01,07,54,18.20
2007,08,01,07,55,18.30
2007,08,01,07,56,18.30
2007,08,01,07,57,18.40
2007,08,01,07,58,18.50
2007,08,01,07,59,18.60
2007,08,01,08,00,18.70
2007,08,01,08,01,18.80
2007,08,01,08,02,18.80
2007,08,01,08,03,18.90
2007,08,01,08,04,18.90
2007,08,01,08,05,18.90
2007,08,01,08,06,19.00
2007,08,01,08,07,19.10
2007,08,01,08,08,19.10
2007,08,01,08,09,19.10
2007,08,01,08,10,19.10
2007,08,01,08,11,19.10
2007,08,01,08,12,19.10
2007,08,01,08,13,19.10
2007,08,01,08,14,19.10
2007,08,01,08,15,19.10
2007,08,01,08,16,19.10
2007,08,01,08,17,19.10
2007,08,01,08,18,19.10
2007,08,01,08,19,19.10
2007,08,01,08,20,19.10
2007,08,01,08,21,19.00
2007,08,01,08,22,18.90
2007,08,01,08,23,18.90
2007,08,01,08,24,18.90
2007,08,01,08,25,18.90
2007,08,01,08,26,18.90
2007,08,01,08,27,18.90
2007,08,01,08,28,19.00
2007,08,01,08,29,19.10
2007,08,01,08,30,19.10
2007,08,01,08,31,19.10
2007,08,01,08,32,19.10
2007,08,01,08,33,19.20
2007,08,01,08,34,19.20
2007,08,01,08,35,19.20
2007,08,01,08,36,19.20
2007,08,01,08,37,19.20
2007,08,01,08,38,19.20
2007,08,01,08,39,19.20
2007,08,01,08,40,19.20
2007,08,01,08,41,19.20
2007,08,01,08,42,19.10
2007,08,01,08,43,19.10
2007,08,01,08,44,19.10
2007,08,01,08,45,19.10
2007,08,01,08,46,19.10
2007,08,01,08,47,19.10
2007,08,01,08,48,19.10
2007,08,01,08,49,19.10
2007,08,01,08,50,19.10
2007,08,01,08,51,19.10
2007,08,01,08,52,19.10
2007,08,01,08,53,19.10
2007,08,01,08,54,19.10
2007,08,01,08,55,19.10
2007,08,01,08,56,19.10
2007,08,01,08,57,19.20
2007,08,01,08,58,19.20
2007,08,01,08,59,19.20
2007,08,01,09,00,19.20
2007,08,01,09,01,19.20
2007,08,01,09,02,19.20
2007,08,01,09,03,19.20
2007,08,01,09,04,19.20
2007,08,01,09,05,19.20
2007,08,01,09,06,19.20
2007,08,01,09,07,19.20
2007,08,01,09,08,19.20
2007,08,01,09,09,19.30
2007,08,01,09,10,19.30
2007,08,01,09,11,19.40
2007,08,01,09,12,19.40
2007,08,01,09,13,19.50
2007,08,01,09,14,19.50
2007,08,01,09,15,19.50
2007,08,01,09,16,19.50
2007,08,01,09,17,19.60
2007,08,01,09,18,19.60
2007,08,01,09,19,19.50
2007,08,01,09,20,19.50
2007,08,01,09,21,19.50
2007,08,01,09,22,19.50
2007,08,01,09,23,19.50
2007,08,01,09,24,19.50
2007,08,01,09,25,19.50
2007,08,01,09,26,19.50
2007,08,01,09,27,19.50
2007,08,01,09,28,19.50
2007,08,01,09,29,19.60
2007,08,01,09,30,19.60
2007,08,01,09,31,19.70
2007,08,01,09,32,19.70
2007,08,01,09,33,19.80
2007,08,01,09,34,19.90
2007,08,01,09,35,19.90
2007,08,01,09,36,19.90
2007,08,01,09,37,20.00
2007,08,01,09,38,20.10
2007,08,01,09,39,20.10
2007,08,01,09,40,20.10
2007,08,01,09,41,20.10
2007,08,01,09,42,20.10
2007,08,01,09,43,20.10
2007,08,01,09,44,20.20
2007,08,01,09,45,20.20
2007,08,01,09,46,20.20
2007,08,01,09,47,20.20
2007,08,01,09,48,20.20
2007,08,01,09,49,20.20
2007,08,01,09,50,20.20
2007,08,01,09,51,20.20
2007,08,01,09,52,20.20
2007,08,01,09,53,20.30
2007,08,01,09,54,20.30
2007,08,01,09,55,20.20
2007,08,01,09,56,20.20
2007,08,01,09,57,20.20
2007,08,01,09,58,20.30
2007,08,01,09,59,20.30
2007,08,01,10,00,20.30
2007,08,01,10,01,20.40
2007,08,01,10,02,20.40
2007,08,01,10,03,20.40
2007,08,01,10,04,20.40
2007,08,01,10,05,20.40
2007,08,01,10,06,20.40
2007,08,01,10,07,20.40
2007,08,01,10,08,20.40
2007,08,01,10,09,20.40
2007,08,01,10,10,20.50
2007,08,01,10,11,20.50
2007,08,01,10,12,20.50
2007,08,01,10,13,20.50
2007,08,01,10,14,20.50
2007,08,01,10,15,20.50
2007,08,01,10,16,20.40
2007,08,01,10,17,20.30
2007,08,01,10,18,20.20
2007,08,01,10,19,20.20
2007,08,01,10,20,20.20
2007,08,01,10,21,20.20
2007,08,01,10,22,20.30
2007,08,01,10,23,20.20
2007,08,01,10,24,20.20
2007,08,01,10,25,20.20
2007,08,01,10,26,20.20
2007,08,01,10,27,20.10
2007,08,01,10,28,20.10
2007,08,01,10,29,20.10
2007,08,01,10,30,20.00
2007,08,01,10,31,19.90
2007,08,01,10,32,20.00
2007,08,01,10,33,20.10
2007,08,01,10,34,20.20
2007,08,01,10,35,20.20
2007,08,01,10,36,20.20
2007,08,01,10,37,20.20
2007,08,01,10,38,20.20
2007,08,01,10,39,20.20
2007,08,01,10,40,20.10
2007,08,01,10,41,20.10
2007,08,01,10,42,20.10
2007,08,01,10,43,20.10
2007,08,01,10,44,20.10
2007,08,01,10,45,20.10
2007,08,01,10,46,20.20
2007,08,01,10,47,20.20
2007,08,01,10,48,20.20
2007,08,01,10,49,20.20
2007,08,01,10,50,20.20
2007,08,01,10,51,20.20
2007,08,01,10,52,20.10
2007,08,01,10,53,20.10
2007,08,01,10,54,20.20
2007,08,01,10,55,20.20
2007,08,01,10,56,20.20
2007,08,01,10,57,20.20
2007,08,01,10,58,20.20
2007,08,01,10,59,20.20
2007,08,01,11,00,20.20
2007,08,01,11,01,20.30
2007,08,01,11,02,20.40
2007,08,01,11,03,20.40
2007,08,01,11,04,20.40
2007,08,01,11,05,20.40
2007,08,01,11,06,20.30
2007,08,01,11,07,20.20
2007,08,01,11,08,20.20
2007,08,01,11,09,20.20
2007,08,01,11,10,20.20
2007,08,01,11,11,20.20
2007,08,01,11,12,20.30
2007,08,01,11,13,20.30
2007,08,01,11,14,20.40
2007,08,01,11,15,20.40
2007,08,01,11,16,20.40
2007,08,01,11,17,20.40
2007,08,01,11,18,20.40
2007,08,01,11,19,20.40
2007,08,01,11,20,20.40
2007,08,01,11,21,20.40
2007,08,01,11,22,20.40
2007,08,01,11,23,20.40
2007,08,01,11,24,20.50
2007,08,01,11,25,20.60
2007,08,01,11,26,20.70
2007,08,01,11,27,20.70
2007,08,01,11,28,20.70
2007,08,01,11,29,20.70
2007,08,01,11,30,20.70
2007,08,01,11,31,20.70
2007,08,01,11,32,20.60
2007,08,01,11,33,20.50
2007,08,01,11,34,20.30
2007,08,01,11,35,20.20
2007,08,01,11,36,20.20
2007,08,01,11,37,20.20
2007,08,01,11,38,20.20
2007,08,01,11,39,20.30
2007,08,01,11,40,20.40
2007,08,01,11,41,20.40
2007,08,01,11,42,20.40
2007,08,01,11,43,20.50
2007,08,01,11,44,20.50
2007,08,01,11,45,20.50
2007,08,01,11,46,20.50
2007,08,01,11,47,20.50
2007,08,01,11,48,20.40
2007,08,01,11,49,20.40
2007,08,01,11,50,20.30
2007,08,01,11,51,20.30
2007,08,01,11,52,20.30
2007,08,01,11,53,20.40
2007,08,01,11,54,20.40
2007,08,01,11,55,20.40
2007,08,01,11,56,20.50
2007,08,01,11,57,20.50
2007,08,01,11,58,20.60
2007,08,01,11,59,20.60
2007,08,01,12,00,20.60
2007,08,01,12,01,20.60
2007,08,01,12,02,20.60
2007,08,01,12,03,20.60
2007,08,01,12,04,20.60
2007,08,01,12,05,20.70
2007,08,01,12,06,20.80
2007,08,01,12,07,20.80
2007,08,01,12,08,20.80
2007,08,01,12,09,20.80
2007,08,01,12,10,20.70
2007,08,01,12,11,20.80
2007,08,01,12,12,20.80
2007,08,01,12,13,20.80
2007,08,01,12,14,20.80
2007,08,01,12,15,20.90
2007,08,01,12,16,20.90
2007,08,01,12,17,20.90
2007,08,01,12,18,20.90
2007,08,01,12,19,20.80
2007,08,01,12,20,20.80
2007,08,01,12,21,21.00
2007,08,01,12,22,21.00
2007,08,01,12,23,21.10
2007,08,01,12,24,21.20
2007,08,01,12,25,21.20
2007,08,01,12,26,21.20
2007,08,01,12,27,21.20
2007,08,01,12,28,21.20
2007,08,01,12,29,21.20
2007,08,01,12,30,21.20
2007,08,01,12,31,21.20
2007,08,01,12,32,21.20
2007,08,01,12,33,21.10
2007,08,01,12,34,21.10
2007,08,01,12,35,21.10
2007,08,01,12,36,21.20
2007,08,01,12,37,21.30
2007,08,01,12,38,21.30
2007,08,01,12,39,21.30
2007,08,01,12,40,21.30
2007,08,01,12,41,21.40
2007,08,01,12,42,21.40
2007,08,01,12,43,21.60
2007,08,01,12,44,21.60
2007,08,01,12,45,21.60
2007,08,01,12,46,21.80
2007,08,01,12,47,21.80
2007,08,01,12,48,21.90
2007,08,01,12,49,22.00
2007,08,01,12,50,22.00
2007,08,01,12,51,21.90
2007,08,01,12,52,21.80
2007,08,01,12,53,21.80
2007,08,01,12,54,21.80
2007,08,01,12,55,21.90
2007,08,01,12,56,21.90
2007,08,01,12,57,21.90
2007,08,01,12,58,22.00
2007,08,01,12,59,22.00
2007,08,01,13,00,22.10
2007,08,01,13,01,22.30
2007,08,01,13,02,22.30
2007,08,01,13,03,22.40
2007,08,01,13,04,22.40
2007,08,01,13,05,22.40
2007,08,01,13,06,22.40
2007,08,01,13,07,22.40
2007,08,01,13,08,22.40
2007,08,01,13,09,22.50
2007,08,01,13,10,22.50
2007,08,01,13,11,22.50
2007,08,01,13,12,22.60
2007,08,01,13,13,22.60
2007,08,01,13,14,22.70
2007,08,01,13,15,22.70
2007,08,01,13,16,22.80
2007,08,01,13,17,22.90
2007,08,01,13,18,22.90
2007,08,01,13,19,22.90
2007,08,01,13,20,22.90
2007,08,01,13,21,23.00
2007,08,01,13,22,23.10
2007,08,01,13,23,23.10
2007,08,01,13,24,23.10
2007,08,01,13,25,22.90
2007,08,01,13,26,22.90
2007,08,01,13,27,22.90
2007,08,01,13,28,22.90
2007,08,01,13,29,22.90
2007,08,01,13,30,22.90
2007,08,01,13,31,22.90
2007,08,01,13,32,22.80
2007,08,01,13,33,22.80
2007,08,01,13,34,22.70
2007,08,01,13,35,22.70
2007,08,01,13,36,22.70
2007,08,01,13,37,22.80
2007,08,01,13,38,22.90
2007,08,01,13,39,23.00
2007,08,01,13,40,23.10
2007,08,01,13,41,23.20
2007,08,01,13,42,23.30
2007,08,01,13,43,23.30
2007,08,01,13,44,23.30
2007,08,01,13,45,23.30
2007,08,01,13,46,23.40
2007,08,01,13,47,23.30
2007,08,01,13,48,23.30
2007,08,01,13,49,23.30
2007,08,01,13,50,23.20
2007,08,01,13,51,23.20
2007,08,01,13,52,23.20
2007,08,01,13,53,23.20
2007,08,01,13,54,23.20
2007,08,01,13,55,23.20
2007,08,01,13,56,23.30
2007,08,01,13,57,23.30
2007,08,01,13,58,23.30
2007,08,01,13,59,23.30
2007,08,01,14,00,23.30
2007,08,01,14,01,23.30
2007,08,01,14,02,23.40
2007,08,01,14,03,23.50
2007,08,01,14,04,23.60
2007,08,01,14,05,23.70
2007,08,01,14,06,23.70
2007,08,01,14,07,23.60
2007,08,01,14,08,23.60
2007,08,01,14,09,23.60
2007,08,01,14,10,23.60
2007,08,01,14,11,23.60
2007,08,01,14,12,23.60
2007,08,01,14,13,23.60
2007,08,01,14,14,23.60
2007,08,01,14,15,23.60
2007,08,01,14,16,23.60
2007,08,01,14,17,23.60
2007,08,01,14,18,23.60
2007,08,01,14,19,23.60
2007,08,01,14,20,23.60
2007,08,01,14,21,23.60
2007,08,01,14,22,23.70
2007,08,01,14,23,23.70
2007,08,01,14,24,23.70
2007,08,01,14,25,23.70
2007,08,01,14,26,23.70
2007,08,01,14,27,23.70
2007,08,01,14,28,23.70
2007,08,01,14,29,23.70
2007,08,01,14,30,23.80
2007,08,01,14,31,23.80
2007,08,01,14,32,23.90
2007,08,01,14,33,24.10
2007,08,01,14,34,24.10
2007,08,01,14,35,24.10
2007,08,01,14,36,24.20
2007,08,01,14,37,24.20
2007,08,01,14,38,24.30
2007,08,01,14,39,24.30
2007,08,01,14,40,24.30
2007,08,01,14,41,24.20
2007,08,01,14,42,24.20
2007,08,01,14,43,24.20
2007,08,01,14,44,24.10
2007,08,01,14,45,24.20
2007,08,01,14,46,24.20
2007,08,01,14,47,24.30
2007,08,01,14,48,24.40
2007,08,01,14,49,24.40
2007,08,01,14,50,24.40
2007,08,01,14,51,24.40
2007,08,01,14,52,24.40
2007,08,01,14,53,24.30
2007,08,01,14,54,24.30
2007,08,01,14,55,24.30
2007,08,01,14,56,24.30
2007,08,01,14,57,24.30
2007,08,01,14,58,24.30
2007,08,01,14,59,24.20
2007,08,01,15,00,24.20
2007,08,01,15,01,24.10
2007,08,01,15,02,24.10
2007,08,01,15,03,24.10
2007,08,01,15,04,24.10
2007,08,01,15,05,24.30
2007,08,01,15,06,24.30
2007,08,01,15,07,24.40
2007,08,01,15,08,24.40
2007,08,01,15,09,24.30
2007,08,01,15,10,24.30
2007,08,01,15,11,24.30
2007,08,01,15,12,24.40
2007,08,01,15,13,24.50
2007,08,01,15,14,24.50
2007,08,01,15,15,24.60
2007,08,01,15,16,24.70
2007,08,01,15,17,24.70
2007,08,01,15,18,24.80
2007,08,01,15,19,24.80
2007,08,01,15,20,24.80
2007,08,01,15,21,24.80
2007,08,01,15,22,24.70
2007,08,01,15,23,24.70
2007,08,01,15,24,24.60
2007,08,01,15,25,24.60
2007,08,01,15,26,24.60
2007,08,01,15,27,24.60
2007,08,01,15,28,24.50
2007,08,01,15,29,24.50
2007,08,01,15,30,24.50
2007,08,01,15,31,24.50
2007,08,01,15,32,24.60
2007,08,01,15,33,24.70
2007,08,01,15,34,24.80
2007,08,01,15,35,24.70
2007,08,01,15,36,24.60
2007,08,01,15,37,24.70
2007,08,01,15,38,24.80
2007,08,01,15,39,24.80
2007,08,01,15,40,24.90
2007,08,01,15,41,25.10
2007,08,01,15,42,25.30
2007,08,01,15,43,25.40
2007,08,01,15,44,25.40
2007,08,01,15,45,25.40
2007,08,01,15,46,25.50
2007,08,01,15,47,25.60
2007,08,01,15,48,25.80
2007,08,01,15,49,25.80
2007,08,01,15,50,25.90
2007,08,01,15,51,26.00
2007,08,01,15,52,26.10
2007,08,01,15,53,26.30
2007,08,01,15,54,26.30
2007,08,01,15,55,26.30
2007,08,01,15,56,26.30
2007,08,01,15,57,26.20
2007,08,01,15,58,26.00
2007,08,01,15,59,25.90
2007,08,01,16,00,25.90
2007,08,01,16,01,25.90
2007,08,01,16,02,26.00
2007,08,01,16,03,26.10
2007,08,01,16,04,26.20
2007,08,01,16,05,26.40
2007,08,01,16,06,26.50
2007,08,01,16,07,26.60
2007,08,01,16,08,26.60
2007,08,01,16,09,26.60
2007,08,01,16,10,26.40
2007,08,01,16,11,26.30
2007,08,01,16,12,26.10
2007,08,01,16,13,26.00
2007,08,01,16,14,26.00
2007,08,01,16,15,26.10
2007,08,01,16,16,26.10
2007,08,01,16,17,26.00
2007,08,01,16,18,26.00
2007,08,01,16,19,26.20
2007,08,01,16,20,26.30
2007,08,01,16,21,26.30
2007,08,01,16,22,26.50
2007,08,01,16,23,26.60
2007,08,01,16,24,26.60
2007,08,01,16,25,26.60
2007,08,01,16,26,26.60
2007,08,01,16,27,26.50
2007,08,01,16,28,26.40
2007,08,01,16,29,26.40
2007,08,01,16,30,26.30
2007,08,01,16,31,26.30
2007,08,01,16,32,26.20
2007,08,01,16,33,26.20
2007,08,01,16,34,26.20
2007,08,01,16,35,26.10
2007,08,01,16,36,26.00
2007,08,01,16,37,26.00
2007,08,01,16,38,26.00
2007,08,01,16,39,26.00
2007,08,01,16,40,26.00
2007,08,01,16,41,26.10
2007,08,01,16,42,26.20
2007,08,01,16,43,26.20
2007,08,01,16,44,26.10
2007,08,01,16,45,26.10
2007,08,01,16,46,26.00
2007,08,01,16,47,25.90
2007,08,01,16,48,25.80
2007,08,01,16,49,25.80
2007,08,01,16,50,25.70
2007,08,01,16,51,25.60
2007,08,01,16,52,25.60
2007,08,01,16,53,25.50
2007,08,01,16,54,25.50
2007,08,01,16,55,25.50
2007,08,01,16,56,25.50
2007,08,01,16,57,25.60
2007,08,01,16,58,25.80
2007,08,01,16,59,25.80
2007,08,01,17,00,25.90
2007,08,01,17,01,25.90
2007,08,01,17,02,26.00
2007,08,01,17,03,26.10
2007,08,01,17,04,26.20
2007,08,01,17,05,26.30
2007,08,01,17,06,26.40
2007,08,01,17,07,26.50
2007,08,01,17,08,26.60
2007,08,01,17,09,26.60
2007,08,01,17,10,26.70
2007,08,01,17,11,26.80
2007,08,01,17,12,26.90
2007,08,01,17,13,26.90
2007,08,01,17,14,27.00
2007,08,01,17,15,27.10
2007,08,01,17,16,26.90
2007,08,01,17,17,26.90
2007,08,01,17,18,26.90
2007,08,01,17,19,26.90